{"data":{"norad_id":68556,"epoch":"2026-09-19T21:06:45.622944Z","epoch_age_seconds":98490,"freshness":"FRESH","line1":"1 68556U 26070Q   26262.87969471  .00019796  00000+0  59543-3 0  9994","line2":"2 68556  53.1581 176.4945 0001814  90.9386 269.1824 15.34402043 26343","mean_motion":15.34402043,"eccentricity":0.0001814,"inclination_deg":53.1581,"raan_deg":176.4945,"arg_perigee_deg":90.9386,"mean_anomaly_deg":269.1824,"bstar":0.00059543,"rev_number":2634,"period_min":93.84763312649,"perigee_km":461.45624066923,"apogee_km":463.93809530537,"semimajor_km":6840.8341679873,"source":"CELESTRAK","updated_at":"2026-09-20T09:00:43.935516Z"}}